Regional Weather Roundup
Issued by NWS

Home | Current Version | Previous Version | Text Only | Print | Product List | Glossary On
Versions: 1 2 3 4 5 6 7 8 9 10 11 12 13 14 15 16 17 18 19 20 21 22 23 24 25 26 27 28 29 30 31 32 33 34 35 36 37 38 39 40 41 42 43 44 45 46 47 48 49 50
000
ASCA42 TJSJ 270610
RWRPR
PUERTO RICO/U.S. VIRGIN ISLANDS HOURLY WEATHER ROUNDUP
NATIONAL WEATHER SERVICE SAN JUAN PR
200 AM AST FRI FEB 27 2015

PRZ001-004-270700-
PUERTO RICO

CITY           SKY/WX    TMP DP  RH WIND       PRES   REMARKS
SAN JUAN LMM   MOCLDY    73  70  88 CALM      30.08F
PONCE          PTCLDY    75  66  73 NE6       30.02S
CEIBA          PTCLDY    77  70  78 E10       30.10F
$$

PRZ006-007-270700-
U.S. VIRGIN ISLANDS

CITY           SKY/WX    TMP DP  RH WIND       PRES   REMARKS
$$

HOURLY WEATHER ROUNDUP FOR THE NEWS MEDIA

CITY           SKY/WX    TMP DP  RH WIND       PRES   REMARKS
ORLANDO        CLOUDY    57  48  72 N9        30.08R
NEW YORK       MOCLDY    23   5  46 N9        30.18R WCI  13
NEWARK         MOCLDY    20  10  65 N8        30.18R WCI  10
CHICAGO        PTCLDY     1  -8  66 NW7       30.42R WCI -12
HARTFORD       PTCLDY    17  10  74 NW3       30.12R
BOSTON         MOCLDY    19   1  45 NW7       30.14R WCI  10
DALLAS         MOCLDY    30  10  43 N16G22    30.43F WCI  19
PHILADELPHIA   MOCLDY    26  18  71 CALM      30.18R
LOS ANGELES    MOCLDY    57  53  86 W6        29.86S
WASHINGTON DC  CLOUDY    30  24  78 CALM      30.16R


USA.gov is the U.S. government's official web portal to all federal, state and local government web resources and services.